This demonstration page uses our WeatherBlox Daily Observations layout. Learn more.

Left ArrowRight Arrow

Hourly Observations for July 12, 2018

Temp ( °F °C ) Dew Point ( °F °C ) Humidity (%) Winds ( mph kmh ) Pressure ( in mb ) Visibility ( mi km ) Precip ( " mm )
12:15 am 00:15 Clear 76 24.6 67 19.3 72 72 SSE 9 15 29.91 1013 10 16 N/A
12:35 am 00:35 Clear 76 24.6 66 19.1 72 72 S 8 13 29.91 1013 10 16 N/A
12:55 am 00:55 Clear 78 25.4 66 18.9 67 67 S 12 19 29.91 1013 10 16 N/A
1:15 am 01:15 Clear 78 25.5 66 18.8 67 67 S 10 17 29.91 1013 10 16 N/A
1:35 am 01:35 Clear 77 25.1 66 18.8 68 68 S 10 17 29.91 1013 10 16 N/A
1:55 am 01:55 Clear 76 24.6 66 18.8 70 70 S 8 13 29.91 1013 10 16 N/A
2:15 am 02:15 Clear 76 24.5 66 18.8 71 71 S 8 13 29.91 1013 10 16 N/A
2:35 am 02:35 Clear 76 24.2 66 18.8 72 72 S 8 13 29.91 1013 10 16 N/A
2:55 am 02:55 Clear 75 24 66 18.7 72 72 S 8 13 29.91 1013 10 16 N/A
3:15 am 03:15 Clear 75 24 66 18.7 72 72 S 8 13 29.91 1013 10 16 N/A
3:35 am 03:35 Clear 74 23.6 65 18.6 74 74 S 9 15 29.94 1014 10 16 N/A
3:55 am 03:55 Clear 74 23.5 66 18.7 75 75 S 9 15 29.94 1014 10 16 N/A
4:15 am 04:15 Clear 74 23.5 66 18.7 75 75 S 9 15 29.94 1014 10 16 N/A
4:35 am 04:35 Clear 73 23 65 18.6 76 76 S 10 17 29.94 1014 10 16 N/A
4:55 am 04:55 Clear 73 23 65 18.6 76 76 S 9 15 29.94 1014 10 16 N/A
5:15 am 05:15 Clear 73 22.8 66 18.7 78 78 S 10 17 29.94 1014 10 16 N/A
5:35 am 05:35 Clear 73 22.8 66 18.7 78 78 S 9 15 29.94 1014 10 16 N/A
5:55 am 05:55 Clear 72 22.4 66 18.8 80 80 S 7 11 29.94 1014 10 16 N/A
6:15 am 06:15 Clear 71 21.6 66 18.8 84 84 S 5 7 29.94 1014 10 16 N/A
6:35 am 06:35 Sunny 71 21.6 66 19 85 85 SSE 7 11 29.94 1014 10 16 N/A
6:55 am 06:55 Sunny 72 22 66 19 83 83 S 7 11 29.94 1014 10 16 N/A
7:15 am 07:15 Sunny 73 22.7 67 19.3 81 81 S 8 13 29.94 1014 10 16 N/A
7:35 am 07:35 Sunny 74 23.3 67 19.7 80 80 S 8 13 29.94 1014 10 16 N/A
7:55 am 07:55 Sunny 75 24 68 20 78 78 S 7 11 29.91 1013 10 16 N/A
8:15 am 08:15 Sunny 77 24.9 69 20.3 76 76 S 8 13 29.91 1013 10 16 N/A
8:35 am 08:35 Sunny 78 25.6 69 20.6 74 74 S 8 13 29.91 1013 10 16 N/A
8:55 am 08:55 Sunny 79 26.3 69 20.6 71 71 S 12 19 29.91 1013 10 16 N/A
9:15 am 09:15 Sunny 81 27 69 20.7 68 68 S 8 13 29.91 1013 10 16 N/A
9:35 am 09:35 Sunny 82 27.6 69 20.7 66 66 S 9 15 29.88 1012 10 16 N/A
9:55 am 09:55 Sunny 83 28.2 69 20.6 63 63 S 10 17 29.88 1012 10 16 N/A
10:15 am 10:15 Sunny 84 28.9 70 21.2 63 63 S 9 15 29.88 1012 10 16 N/A
10:35 am 10:35 Sunny 85 29.3 69 20.5 59 59 SSW 13 20 29.88 1012 10 16 N/A
10:55 am 10:55 Sunny 85 29.7 70 21.3 61 61 S 10 17 29.88 1012 10 16 N/A
11:15 am 11:15 Sunny 87 30.4 71 21.4 59 59 S 8 13 29.88 1012 10 16 N/A
11:35 am 11:35 Sunny 88 30.9 71 21.4 57 57 SSE 10 17 29.85 1011 10 16 N/A
11:55 am 11:55 Sunny 88 31.2 70 20.9 54 54 S 12 19 29.85 1011 10 16 N/A
12:15 pm 12:15 Sunny 89 31.7 69 20.8 52 52 S 9 15 29.85 1011 10 16 N/A
12:35 pm 12:35 Sunny 89 31.9 71 21.4 54 54 S 12 19 29.85 1011 10 16 N/A
12:55 pm 12:55 Sunny 90 32.1 70 21.2 53 53 SSE 8 13 29.85 1011 10 16 N/A
1:15 pm 13:15 Sunny 90 32.4 70 21.1 51 51 SE 9 15 29.85 1011 10 16 N/A
1:35 pm 13:35 Sunny 90 32.4 71 21.4 52 52 SE 14 22 29.85 1011 10 16 N/A
1:55 pm 13:55 Sunny 91 32.5 70 20.9 50 50 SE 10 17 29.85 1011 10 16 N/A
2:15 pm 14:15 Sunny 91 32.8 69 20.7 49 49 SE 14 22 29.85 1011 10 16 N/A
2:35 pm 14:35 Sunny 91 33 70 21 49 49 SSE 13 20 29.85 1011 10 16 N/A
2:55 pm 14:55 Sunny 92 33.3 70 21 48 48 SE 14 22 29.85 1011 10 16 N/A
3:15 pm 15:15 Sunny 92 33.6 68 20.1 45 45 SE 13 20 29.85 1011 10 16 N/A
3:35 pm 15:35 Sunny 92 33.6 67 19.5 43 43 SSE 16 26 29.85 1011 10 16 N/A
3:55 pm 15:55 Sunny 92 33.6 68 20.2 45 45 SSE 13 20 29.83 1010 10 16 N/A
4:15 pm 16:15 Sunny 92 33.6 68 19.8 44 44 SSE 17 28 29.83 1010 10 16 N/A
4:35 pm 16:35 Sunny 92 33.5 67 19.3 43 43 SSE 16 26 29.83 1010 10 16 N/A
4:55 pm 16:55 Sunny 92 33.6 68 19.9 44 44 SSE 14 22 29.80 1009 10 16 N/A
5:15 pm 17:15 Sunny 92 33.5 67 19.5 44 44 SSE 17 28 29.80 1009 10 16 N/A
5:35 pm 17:35 Sunny 92 33.3 66 19 43 43 SSE 16 26 29.80 1009 10 16 N/A
5:55 pm 17:55 Sunny 92 33.3 67 19.6 44 44 SSE 10 17 29.80 1009 10 16 N/A
6:15 pm 18:15 Sunny 92 33.1 69 20.4 47 47 SE 21 33 29.80 1009 10 16 N/A
6:35 pm 18:35 Sunny 86 30.1 67 19.5 53 53 SE 14 22 29.83 1010 10 16 N/A
6:55 pm 18:55 Sunny 88 31 67 19.7 51 51 SE 14 22 29.80 1009 10 16 N/A
7:15 pm 19:15 Sunny 87 30.7 67 19.5 51 51 SE 15 24 29.80 1009 10 16 N/A
7:35 pm 19:35 Sunny 87 30.3 67 19.4 52 52 SE 9 15 29.80 1009 10 16 N/A
7:55 pm 19:55 Sunny 85 29.6 67 19.4 54 54 SE 13 20 29.83 1010 10 16 N/A
8:15 pm 20:15 Sunny 84 29 68 20 58 58 SE 10 17 29.83 1010 10 16 N/A
8:35 pm 20:35 Sunny 83 28.4 68 19.8 60 60 SE 9 15 29.83 1010 10 16 N/A
8:55 pm 20:55 Sunny 83 28.2 68 20.1 61 61 SE 9 15 29.83 1010 10 16 N/A
9:15 pm 21:15 Mostly Cloudy 82 27.5 69 20.3 65 65 SE 8 13 29.83 1010 10 16 N/A
9:35 pm 21:35 Partly Cloudy 82 27.9 67 19.5 60 60 SE 10 17 29.83 1010 10 16 N/A
9:55 pm 21:55 Clear 81 27.2 67 19.2 62 62 SSE 8 13 29.85 1011 10 16 N/A
10:15 pm 22:15 Clear 80 26.5 67 19.2 64 64 SE 10 17 29.88 1012 10 16 N/A
10:35 pm 22:35 Clear 80 26.4 67 19.2 65 65 SSE 8 13 29.88 1012 10 16 N/A
10:55 pm 22:55 Clear 78 25.7 67 19.4 68 68 SSE 8 13 29.91 1013 10 16 N/A
11:15 pm 23:15 Clear 77 25 67 19.6 72 72 SSE 6 9 29.91 1013 10 16 N/A
11:35 pm 23:35 Partly Cloudy 77 25 67 19.6 72 72 SSE 7 11 29.91 1013 10 16 N/A
11:55 pm 23:55 Partly Cloudy 78 25.8 66 19 66 66 S 10 17 29.91 1013 10 16 N/A

Powered by AerisWeather